Time,TemperatureF,DewpointF,PressureIn,WindDirection,WindDirectionDegrees,WindSpeedMPH,WindSpeedGustMPH,Humidity,HourlyPrecipIn,Conditions,Clouds,dailyrainin,SoftwareType,DateUTC
2013-03-08 00:00:00,30.8,24.7,30.24,NW,321,5.0,6.0,78,0.00,,,0.00,Wunderground v.1.15,2013-03-08 05:00:00,
2013-03-08 00:05:00,30.9,24.5,30.24,NNW,340,5.0,6.0,77,0.00,,,0.00,Wunderground v.1.15,2013-03-08 05:05:00,
2013-03-08 00:10:00,30.9,24.5,30.24,NNW,338,6.0,6.0,77,0.00,,,0.00,Wunderground v.1.15,2013-03-08 05:10:00,
2013-03-08 00:15:00,30.9,24.2,30.25,North,6,5.0,6.0,76,0.00,,,0.00,Wunderground v.1.15,2013-03-08 05:15:00,
2013-03-08 00:20:00,30.8,24.1,30.25,NW,323,4.0,5.0,76,0.00,,,0.00,Wunderground v.1.15,2013-03-08 05:20:00,
2013-03-08 00:30:00,30.8,23.5,30.25,North,4,5.0,6.0,74,0.00,,,0.00,Wunderground v.1.15,2013-03-08 05:30:00,
2013-03-08 00:40:00,30.7,23.7,30.25,North,2,4.0,4.0,75,0.00,,,0.00,Wunderground v.1.15,2013-03-08 05:40:00,
2013-03-08 00:45:00,30.7,23.4,30.25,NNW,340,5.0,5.0,74,0.00,,,0.00,Wunderground v.1.15,2013-03-08 05:45:00,
2013-03-08 00:55:00,30.6,23.3,30.25,NNW,341,5.0,6.0,74,0.00,,,0.00,Wunderground v.1.15,2013-03-08 05:55:00,
2013-03-08 01:00:00,30.6,23.6,30.25,NNE,25,5.0,5.0,75,0.00,,,0.00,Wunderground v.1.15,2013-03-08 06:00:00,
2013-03-08 01:10:00,30.5,24.1,30.26,NNW,341,5.0,9.0,77,0.00,,,0.00,Wunderground v.1.15,2013-03-08 06:10:00,
2013-03-08 01:20:00,29.9,24.8,30.26,NNE,15,7.0,8.0,81,0.00,,,0.00,Wunderground v.1.15,2013-03-08 06:20:00,
2013-03-08 01:25:00,29.6,24.8,30.26,NNW,327,8.0,8.0,82,0.00,,,0.00,Wunderground v.1.15,2013-03-08 06:25:00,
2013-03-08 01:30:00,29.4,24.6,30.26,North,10,6.0,7.0,82,0.00,,,0.00,Wunderground v.1.15,2013-03-08 06:30:00,
2013-03-08 01:40:00,29.5,24.4,30.26,NNW,334,6.0,6.0,81,0.00,,,0.00,Wunderground v.1.15,2013-03-08 06:40:00,
2013-03-08 01:45:00,29.6,24.2,30.26,NNE,15,5.0,7.0,80,0.00,,,0.00,Wunderground v.1.15,2013-03-08 06:45:00,
2013-03-08 01:55:00,29.8,24.1,30.26,NNW,342,4.0,5.0,79,0.00,,,0.00,Wunderground v.1.15,2013-03-08 06:55:00,
2013-03-08 02:00:00,29.8,24.1,30.26,North,11,4.0,5.0,79,0.00,,,0.00,Wunderground v.1.15,2013-03-08 07:00:00,
2013-03-08 02:10:00,29.9,24.5,30.26,NNE,18,8.0,10.0,80,0.00,,,0.00,Wunderground v.1.15,2013-03-08 07:10:00,
2013-03-08 02:20:00,29.6,24.8,30.26,NNE,18,7.0,7.0,82,0.00,,,0.00,Wunderground v.1.15,2013-03-08 07:20:00,
2013-03-08 02:30:00,29.3,24.8,30.26,North,356,6.0,6.0,83,0.00,,,0.00,Wunderground v.1.15,2013-03-08 07:30:00,
2013-03-08 02:35:00,29.2,25.3,30.26,NNE,18,6.0,9.0,85,0.00,,,0.00,Wunderground v.1.15,2013-03-08 07:35:00,
2013-03-08 02:45:00,29.0,25.3,30.26,North,358,5.0,7.0,86,0.00,,,0.00,Wunderground v.1.15,2013-03-08 07:45:00,
2013-03-08 02:55:00,28.8,25.4,30.26,North,359,4.0,4.0,87,0.00,,,0.00,Wunderground v.1.15,2013-03-08 07:55:00,
2013-03-08 03:00:00,28.7,25.6,30.26,NW,326,4.0,4.0,88,0.00,,,0.00,Wunderground v.1.15,2013-03-08 08:00:00,
2013-03-08 03:10:00,28.6,25.8,30.26,NNW,343,2.0,2.0,89,0.00,,,0.00,Wunderground v.1.15,2013-03-08 08:10:00,
2013-03-08 03:15:00,28.6,25.8,30.26,North,9,3.0,3.0,89,0.00,,,0.00,Wunderground v.1.15,2013-03-08 08:15:00,
2013-03-08 03:25:00,28.5,25.7,30.27,NNW,328,2.0,3.0,89,0.00,,,0.00,Wunderground v.1.15,2013-03-08 08:25:00,
2013-03-08 03:30:00,28.5,25.9,30.27,North,5,3.0,3.0,90,0.00,,,0.00,Wunderground v.1.15,2013-03-08 08:30:00,
2013-03-08 03:40:00,28.6,26.0,30.27,NNE,14,4.0,4.0,90,0.00,,,0.00,Wunderground v.1.15,2013-03-08 08:40:00,
2013-03-08 03:45:00,28.6,26.0,30.27,NE,37,4.0,4.0,90,0.00,,,0.00,Wunderground v.1.15,2013-03-08 08:45:00,
2013-03-08 03:55:00,28.5,25.9,30.27,NNE,13,4.0,5.0,90,0.00,,,0.00,Wunderground v.1.15,2013-03-08 08:55:00,
2013-03-08 04:05:00,28.4,26.1,30.28,NNE,15,4.0,5.0,91,0.00,,,0.00,Wunderground v.1.15,2013-03-08 09:05:00,
2013-03-08 04:10:00,28.3,26.0,30.28,NNW,333,4.0,4.0,91,0.00,,,0.00,Wunderground v.1.15,2013-03-08 09:10:00,
2013-03-08 04:20:00,28.2,25.9,30.28,NNW,342,3.0,3.0,91,0.00,,,0.00,Wunderground v.1.15,2013-03-08 09:20:00,
2013-03-08 04:25:00,28.2,25.9,30.28,NNW,345,3.0,3.0,91,0.00,,,0.00,Wunderground v.1.15,2013-03-08 09:25:00,
2013-03-08 04:30:00,28.2,26.2,30.29,NW,321,3.0,3.0,92,0.00,,,0.00,Wunderground v.1.15,2013-03-08 09:30:00,
2013-03-08 04:40:00,28.1,26.1,30.29,North,4,3.0,3.0,92,0.00,,,0.00,Wunderground v.1.15,2013-03-08 09:40:00,
2013-03-08 04:50:00,28.1,26.1,30.29,North,4,3.0,3.0,92,0.00,,,0.00,Wunderground v.1.15,2013-03-08 09:50:00,
2013-03-08 05:00:00,28.1,26.3,30.30,NNE,32,3.0,3.0,93,0.00,,,0.00,Wunderground v.1.15,2013-03-08 10:00:00,
2013-03-08 05:10:00,28.0,26.2,30.30,NNW,343,3.0,3.0,93,0.00,,,0.00,Wunderground v.1.15,2013-03-08 10:10:00,
2013-03-08 05:15:00,28.0,26.2,30.30,NW,323,3.0,3.0,93,0.00,,,0.00,Wunderground v.1.15,2013-03-08 10:15:00,
2013-03-08 05:25:00,28.0,26.0,30.30,NW,320,3.0,3.0,92,0.00,,,0.00,Wunderground v.1.15,2013-03-08 10:25:00,
2013-03-08 05:30:00,28.0,26.0,30.31,NNW,335,3.0,3.0,92,0.00,,,0.00,Wunderground v.1.15,2013-03-08 10:30:00,
2013-03-08 05:35:00,27.9,25.9,30.31,NNW,338,3.0,3.0,92,0.00,,,0.00,Wunderground v.1.15,2013-03-08 10:35:00,
2013-03-08 05:45:00,27.9,25.9,30.31,NNW,332,3.0,3.0,92,0.00,,,0.00,Wunderground v.1.15,2013-03-08 10:45:00,
2013-03-08 05:55:00,27.8,25.8,30.31,NNW,332,2.0,2.0,92,0.00,,,0.00,Wunderground v.1.15,2013-03-08 10:55:00,
2013-03-08 06:00:00,27.7,25.7,30.31,NW,326,1.0,1.0,92,0.00,,,0.00,Wunderground v.1.15,2013-03-08 11:00:00,
2013-03-08 06:10:00,27.6,25.6,30.31,NW,325,1.0,1.0,92,0.00,,,0.00,Wunderground v.1.15,2013-03-08 11:10:00,
2013-03-08 06:20:00,27.5,25.7,30.31,WNW,289,0.0,0.0,93,0.00,,,0.00,Wunderground v.1.15,2013-03-08 11:20:00,
2013-03-08 06:30:00,27.6,25.6,30.31,WNW,288,0.0,0.0,92,0.00,,,0.00,Wunderground v.1.15,2013-03-08 11:30:00,
2013-03-08 06:40:00,27.6,25.6,30.31,West,280,0.0,2.0,92,0.00,,,0.00,Wunderground v.1.15,2013-03-08 11:40:00,
2013-03-08 06:45:00,27.6,25.6,30.31,West,280,0.0,2.0,92,0.00,,,0.00,Wunderground v.1.15,2013-03-08 11:45:00,
2013-03-08 06:55:00,27.5,25.5,30.32,West,281,0.0,1.0,92,0.00,,,0.00,Wunderground v.1.15,2013-03-08 11:55:00,
2013-03-08 07:00:00,27.5,25.2,30.32,West,281,1.0,1.0,91,0.00,,,0.00,Wunderground v.1.15,2013-03-08 12:00:00,
2013-03-08 07:10:00,27.7,25.4,30.32,West,279,1.0,1.0,91,0.00,,,0.00,Wunderground v.1.15,2013-03-08 12:10:00,
2013-03-08 07:15:00,27.8,25.2,30.32,WNW,284,1.0,1.0,90,0.00,,,0.00,Wunderground v.1.15,2013-03-08 12:15:00,
2013-03-08 07:25:00,28.4,25.3,30.32,NNW,329,1.0,2.0,88,0.00,,,0.00,Wunderground v.1.15,2013-03-08 12:25:00,
2013-03-08 07:35:00,29.0,25.6,30.32,NW,314,1.0,2.0,87,0.00,,,0.00,Wunderground v.1.15,2013-03-08 12:35:00,
2013-03-08 07:45:00,29.7,26.0,30.32,North,354,2.0,2.0,86,0.00,,,0.00,Wunderground v.1.15,2013-03-08 12:45:00,
2013-03-08 07:55:00,30.4,26.1,30.33,North,349,2.0,2.0,84,0.00,,,0.00,Wunderground v.1.15,2013-03-08 12:55:00,
2013-03-08 08:05:00,31.0,26.1,30.33,NW,321,2.0,4.0,82,0.00,,,0.00,Wunderground v.1.15,2013-03-08 13:05:00,
2013-03-08 08:10:00,31.2,26.3,30.33,NW,323,3.0,4.0,82,0.00,,,0.00,Wunderground v.1.15,2013-03-08 13:10:00,
2013-03-08 08:20:00,31.7,26.5,30.33,NNW,344,3.0,9.0,81,0.00,,,0.00,Wunderground v.1.15,2013-03-08 13:20:00,
2013-03-08 08:25:00,32.1,26.3,30.33,NNW,340,4.0,9.0,79,0.00,,,0.00,Wunderground v.1.15,2013-03-08 13:25:00,
2013-03-08 08:30:00,32.4,26.3,30.33,NNW,343,5.0,5.0,78,0.00,,,0.00,Wunderground v.1.15,2013-03-08 13:30:00,
2013-03-08 08:40:00,32.8,26.1,30.33,NNE,20,5.0,7.0,76,0.00,,,0.00,Wunderground v.1.15,2013-03-08 13:40:00,
2013-03-08 08:50:00,33.3,25.9,30.33,NNW,345,6.0,6.0,74,0.00,,,0.00,Wunderground v.1.15,2013-03-08 13:50:00,
2013-03-08 09:00:00,33.3,25.6,30.33,North,8,8.0,12.0,73,0.00,,,0.00,Wunderground v.1.15,2013-03-08 14:00:00,
2013-03-08 09:10:00,34.0,25.9,30.34,NNE,13,7.0,8.0,72,0.00,,,0.00,Wunderground v.1.15,2013-03-08 14:10:00,
2013-03-08 09:15:00,34.1,25.3,30.33,NNW,338,9.0,9.0,70,0.00,,,0.00,Wunderground v.1.15,2013-03-08 14:15:00,
2013-03-08 09:25:00,34.6,26.5,30.34,North,10,9.0,10.0,72,0.00,,,0.00,Wunderground v.1.15,2013-03-08 14:25:00,
2013-03-08 09:30:00,34.6,26.5,30.34,NNE,13,9.0,16.0,72,0.00,,,0.00,Wunderground v.1.15,2013-03-08 14:30:00,
2013-03-08 09:35:00,34.2,25.8,30.34,NNE,15,11.0,16.0,71,0.00,,,0.00,Wunderground v.1.15,2013-03-08 14:35:00,
2013-03-08 09:45:00,33.9,25.1,30.34,North,360,10.0,14.0,70,0.00,,,0.00,Wunderground v.1.15,2013-03-08 14:45:00,
2013-03-08 09:55:00,34.1,26.0,30.34,North,2,8.0,9.0,72,0.00,,,0.00,Wunderground v.1.15,2013-03-08 14:55:00,
2013-03-08 10:00:00,34.4,26.0,30.34,North,349,7.0,9.0,71,0.00,,,0.00,Wunderground v.1.15,2013-03-08 15:00:00,
2013-03-08 10:05:00,34.7,26.9,30.34,North,8,7.0,9.0,73,0.00,,,0.00,Wunderground v.1.15,2013-03-08 15:05:00,
2013-03-08 10:10:00,34.9,26.1,30.34,NW,320,7.0,7.0,70,0.00,,,0.00,Wunderground v.1.15,2013-03-08 15:10:00,
2013-03-08 10:20:00,34.8,25.3,30.34,NNE,15,7.0,8.0,68,0.00,,,0.00,Wunderground v.1.15,2013-03-08 15:20:00,
2013-03-08 10:25:00,34.6,25.5,30.34,North,1,8.0,8.0,69,0.00,,,0.00,Wunderground v.1.15,2013-03-08 15:25:00,
2013-03-08 10:30:00,35.1,26.3,30.34,NNW,342,7.0,7.0,70,0.00,,,0.00,Wunderground v.1.15,2013-03-08 15:30:00,
2013-03-08 10:40:00,35.7,25.1,30.34,NNW,342,8.0,8.0,65,0.00,,,0.00,Wunderground v.1.15,2013-03-08 15:40:00,
2013-03-08 10:50:00,35.8,26.6,30.35,North,8,9.0,12.0,69,0.00,,,0.00,Wunderground v.1.15,2013-03-08 15:50:00,
2013-03-08 11:00:00,35.6,25.4,30.35,NNE,18,11.0,12.0,66,0.00,,,0.00,Wunderground v.1.15,2013-03-08 16:00:00,
2013-03-08 11:10:00,35.9,25.6,30.35,NNW,339,9.0,9.0,66,0.00,,,0.00,Wunderground v.1.15,2013-03-08 16:10:00,
2013-03-08 11:15:00,36.2,26.3,30.35,North,1,8.0,9.0,67,0.00,,,0.00,Wunderground v.1.15,2013-03-08 16:15:00,
2013-03-08 11:25:00,36.3,26.0,30.35,North,349,8.0,8.0,66,0.00,,,0.00,Wunderground v.1.15,2013-03-08 16:25:00,
2013-03-08 11:30:00,36.4,25.7,30.35,NNW,341,8.0,8.0,65,0.00,,,0.00,Wunderground v.1.15,2013-03-08 16:30:00,
2013-03-08 11:35:00,36.6,25.6,30.35,NNE,27,8.0,12.0,64,0.00,,,0.00,Wunderground v.1.15,2013-03-08 16:35:00,
2013-03-08 11:40:00,36.3,24.9,30.35,NNW,347,9.0,9.0,63,0.00,,,0.00,Wunderground v.1.15,2013-03-08 16:40:00,
2013-03-08 11:50:00,35.8,24.4,30.36,NE,51,10.0,10.0,63,0.00,,,0.00,Wunderground v.1.15,2013-03-08 16:50:00,
2013-03-08 11:55:00,36.1,25.5,30.36,NNW,344,10.0,10.0,65,0.00,,,0.00,Wunderground v.1.15,2013-03-08 16:55:00,
2013-03-08 12:00:00,36.3,26.4,30.35,NNE,28,10.0,12.0,67,0.00,,,0.00,Wunderground v.1.15,2013-03-08 17:00:00,
2013-03-08 12:10:00,36.5,25.1,30.36,NNW,329,9.0,9.0,63,0.00,,,0.00,Wunderground v.1.15,2013-03-08 17:10:00,
2013-03-08 12:20:00,36.7,24.9,30.36,North,7,9.0,14.0,62,0.00,,,0.00,Wunderground v.1.15,2013-03-08 17:20:00,
2013-03-08 12:30:00,36.4,25.0,30.36,NNW,340,9.0,9.0,63,0.00,,,0.00,Wunderground v.1.15,2013-03-08 17:30:00,
2013-03-08 12:40:00,36.8,25.0,30.35,North,356,8.0,8.0,62,0.00,,,0.00,Wunderground v.1.15,2013-03-08 17:40:00,
2013-03-08 12:50:00,36.8,24.6,30.36,NNW,347,8.0,8.0,61,0.00,,,0.00,Wunderground v.1.15,2013-03-08 17:50:00,
2013-03-08 13:00:00,36.9,25.9,30.35,North,10,8.0,11.0,64,0.00,,,0.00,Wunderground v.1.15,2013-03-08 18:00:00,
2013-03-08 13:10:00,37.4,25.9,30.35,NNW,332,8.0,10.0,63,0.00,,,0.00,Wunderground v.1.15,2013-03-08 18:10:00,
2013-03-08 13:15:00,37.3,25.5,30.35,NNE,21,8.0,10.0,62,0.00,,,0.00,Wunderground v.1.15,2013-03-08 18:15:00,
2013-03-08 13:25:00,37.3,24.3,30.35,North,10,8.0,9.0,59,0.00,,,0.00,Wunderground v.1.15,2013-03-08 18:25:00,
2013-03-08 13:30:00,37.0,24.0,30.35,North,356,9.0,11.0,59,0.00,,,0.00,Wunderground v.1.15,2013-03-08 18:30:00,
2013-03-08 13:40:00,37.0,23.2,30.35,North,1,10.0,12.0,57,0.00,,,0.00,Wunderground v.1.15,2013-03-08 18:40:00,
2013-03-08 13:50:00,37.4,24.0,30.34,NNW,330,8.0,14.0,58,0.00,,,0.00,Wunderground v.1.15,2013-03-08 18:50:00,
2013-03-08 13:55:00,37.5,23.6,30.34,NNW,344,9.0,14.0,57,0.00,,,0.00,Wunderground v.1.15,2013-03-08 18:55:00,
2013-03-08 14:05:00,37.6,24.6,30.34,North,351,8.0,12.0,59,0.00,,,0.00,Wunderground v.1.15,2013-03-08 19:05:00,
2013-03-08 14:10:00,37.6,25.0,30.34,NNW,335,8.0,8.0,60,0.00,,,0.00,Wunderground v.1.15,2013-03-08 19:10:00,
2013-03-08 14:20:00,37.8,23.5,30.34,NNW,344,8.0,12.0,56,0.00,,,0.00,Wunderground v.1.15,2013-03-08 19:20:00,
2013-03-08 14:25:00,37.6,23.7,30.34,North,354,9.0,12.0,57,0.00,,,0.00,Wunderground v.1.15,2013-03-08 19:25:00,
2013-03-08 14:30:00,38.1,24.6,30.34,NNE,15,8.0,8.0,58,0.00,,,0.00,Wunderground v.1.15,2013-03-08 19:30:00,
2013-03-08 14:40:00,38.4,26.5,30.34,North,6,7.0,7.0,62,0.00,,,0.00,Wunderground v.1.15,2013-03-08 19:40:00,
2013-03-08 14:50:00,38.0,23.3,30.34,North,351,8.0,8.0,55,0.00,,,0.00,Wunderground v.1.15,2013-03-08 19:50:00,
2013-03-08 15:00:00,38.4,24.1,30.34,North,357,7.0,10.0,56,0.00,,,0.00,Wunderground v.1.15,2013-03-08 20:00:00,
2013-03-08 15:05:00,38.5,24.6,30.34,NW,311,7.0,10.0,57,0.00,,,0.00,Wunderground v.1.15,2013-03-08 20:05:00,
2013-03-08 15:15:00,38.5,23.7,30.34,North,351,8.0,10.0,55,0.00,,,0.00,Wunderground v.1.15,2013-03-08 20:15:00,
2013-03-08 15:20:00,38.7,25.6,30.34,NW,319,7.0,9.0,59,0.00,,,0.00,Wunderground v.1.15,2013-03-08 20:20:00,
2013-03-08 15:30:00,38.8,23.1,30.35,NNW,338,7.0,8.0,53,0.00,,,0.00,Wunderground v.1.15,2013-03-08 20:30:00,
2013-03-08 15:40:00,38.6,22.9,30.35,NNW,334,9.0,9.0,53,0.00,,,0.00,Wunderground v.1.15,2013-03-08 20:40:00,
2013-03-08 15:50:00,38.8,24.0,30.35,NNW,345,7.0,8.0,55,0.00,,,0.00,Wunderground v.1.15,2013-03-08 20:50:00,
2013-03-08 15:55:00,39.0,24.2,30.35,NE,36,7.0,11.0,55,0.00,,,0.00,Wunderground v.1.15,2013-03-08 20:55:00,
2013-03-08 16:05:00,39.0,23.3,30.34,NNW,337,8.0,11.0,53,0.00,,,0.00,Wunderground v.1.15,2013-03-08 21:05:00,
2013-03-08 16:15:00,38.9,23.7,30.34,NNW,338,8.0,9.0,54,0.00,,,0.00,Wunderground v.1.15,2013-03-08 21:15:00,
2013-03-08 16:25:00,39.1,24.7,30.34,North,8,6.0,7.0,56,0.00,,,0.00,Wunderground v.1.15,2013-03-08 21:25:00,
2013-03-08 16:35:00,39.1,24.3,30.34,NNW,340,5.0,6.0,55,0.00,,,0.00,Wunderground v.1.15,2013-03-08 21:35:00,
2013-03-08 16:40:00,39.0,24.2,30.35,North,359,5.0,6.0,55,0.00,,,0.00,Wunderground v.1.15,2013-03-08 21:40:00,
2013-03-08 16:50:00,39.2,24.8,30.35,NNE,29,5.0,8.0,56,0.00,,,0.00,Wunderground v.1.15,2013-03-08 21:50:00,
2013-03-08 16:55:00,39.0,23.7,30.35,NW,316,5.0,8.0,54,0.00,,,0.00,Wunderground v.1.15,2013-03-08 21:55:00,
2013-03-08 17:00:00,38.9,23.7,30.35,NNW,345,7.0,7.0,54,0.00,,,0.00,Wunderground v.1.15,2013-03-08 22:00:00,
2013-03-08 17:10:00,38.9,24.5,30.35,NNW,341,4.0,6.0,56,0.00,,,0.00,Wunderground v.1.15,2013-03-08 22:10:00,
2013-03-08 17:20:00,39.0,24.6,30.36,WNW,299,3.0,3.0,56,0.00,,,0.00,Wunderground v.1.15,2013-03-08 22:20:00,
2013-03-08 17:30:00,38.7,23.9,30.36,NW,311,2.0,4.0,55,0.00,,,0.00,Wunderground v.1.15,2013-03-08 22:30:00,
2013-03-08 17:35:00,38.2,23.9,30.36,North,349,2.0,4.0,56,0.00,,,0.00,Wunderground v.1.15,2013-03-08 22:35:00,
2013-03-08 17:45:00,37.3,23.9,30.36,NNW,328,2.0,2.0,58,0.00,,,0.00,Wunderground v.1.15,2013-03-08 22:45:00,
2013-03-08 17:55:00,36.7,23.7,30.37,WNW,294,1.0,1.0,59,0.00,,,0.00,Wunderground v.1.15,2013-03-08 22:55:00,
2013-03-08 18:00:00,36.4,23.4,30.37,NW,326,1.0,2.0,59,0.00,,,0.00,Wunderground v.1.15,2013-03-08 23:00:00,
2013-03-08 18:10:00,35.8,23.7,30.37,NW,326,1.0,1.0,61,0.00,,,0.00,Wunderground v.1.15,2013-03-08 23:10:00,
2013-03-08 18:20:00,35.1,23.4,30.37,NNW,338,0.0,0.0,62,0.00,,,0.00,Wunderground v.1.15,2013-03-08 23:20:00,
2013-03-08 18:30:00,34.5,23.6,30.37,NNW,329,0.0,0.0,64,0.00,,,0.00,Wunderground v.1.15,2013-03-08 23:30:00,
2013-03-08 18:40:00,33.9,23.4,30.37,NNW,329,0.0,0.0,65,0.00,,,0.00,Wunderground v.1.15,2013-03-08 23:40:00,
2013-03-08 18:50:00,33.6,23.1,30.38,NNW,329,0.0,0.0,65,0.00,,,0.00,Wunderground v.1.15,2013-03-08 23:50:00,
2013-03-08 19:00:00,33.3,23.2,30.38,NNW,329,0.0,1.0,66,0.00,,,0.00,Wunderground v.1.15,2013-03-09 00:00:00,
2013-03-08 19:10:00,32.6,22.8,30.38,NNW,329,0.0,0.0,67,0.00,,,0.00,Wunderground v.1.15,2013-03-09 00:10:00,
2013-03-08 19:20:00,31.9,22.5,30.38,NNW,329,0.0,0.0,68,0.00,,,0.00,Wunderground v.1.15,2013-03-09 00:20:00,
2013-03-08 19:30:00,31.1,22.1,30.38,NNW,329,0.0,0.0,69,0.00,,,0.00,Wunderground v.1.15,2013-03-09 00:30:00,
2013-03-08 19:35:00,30.6,22.0,30.38,NNW,329,0.0,0.0,70,0.00,,,0.00,Wunderground v.1.15,2013-03-09 00:35:00,
2013-03-08 19:45:00,30.7,22.1,30.39,NNW,329,0.0,0.0,70,0.00,,,0.00,Wunderground v.1.15,2013-03-09 00:45:00,
2013-03-08 19:55:00,30.0,22.1,30.38,NNW,329,0.0,1.0,72,0.00,,,0.00,Wunderground v.1.15,2013-03-09 00:55:00,
2013-03-08 20:05:00,30.4,22.4,30.39,NNW,329,0.0,1.0,72,0.00,,,0.00,Wunderground v.1.15,2013-03-09 01:05:00,
2013-03-08 20:10:00,29.9,22.3,30.39,NNW,329,0.0,0.0,73,0.00,,,0.00,Wunderground v.1.15,2013-03-09 01:10:00,
2013-03-08 20:20:00,28.4,21.8,30.39,NNW,329,0.0,0.0,76,0.00,,,0.00,Wunderground v.1.15,2013-03-09 01:20:00,
2013-03-08 20:30:00,27.9,23.1,30.39,NNW,329,0.0,0.0,82,0.00,,,0.00,Wunderground v.1.15,2013-03-09 01:30:00,
2013-03-08 20:40:00,28.0,24.1,30.39,NNW,329,0.0,0.0,85,0.00,,,0.00,Wunderground v.1.15,2013-03-09 01:40:00,
2013-03-08 20:50:00,27.4,23.8,30.39,NNW,329,0.0,0.0,86,0.00,,,0.00,Wunderground v.1.15,2013-03-09 01:50:00,
2013-03-08 21:00:00,26.7,22.5,30.39,NNW,329,0.0,0.0,84,0.00,,,0.00,Wunderground v.1.15,2013-03-09 02:00:00,
2013-03-08 21:05:00,26.3,22.4,30.38,NNW,329,0.0,0.0,85,0.00,,,0.00,Wunderground v.1.15,2013-03-09 02:05:00,
2013-03-08 21:15:00,26.0,22.4,30.38,NNW,329,0.0,0.0,86,0.00,,,0.00,Wunderground v.1.15,2013-03-09 02:15:00,
2013-03-08 21:25:00,25.8,22.2,30.39,NNW,329,0.0,0.0,86,0.00,,,0.00,Wunderground v.1.15,2013-03-09 02:25:00,
2013-03-08 21:30:00,25.6,22.0,30.39,NNW,329,0.0,0.0,86,0.00,,,0.00,Wunderground v.1.15,2013-03-09 02:30:00,
2013-03-08 21:40:00,25.2,21.9,30.39,NNW,329,0.0,0.0,87,0.00,,,0.00,Wunderground v.1.15,2013-03-09 02:40:00,
2013-03-08 21:50:00,25.3,22.2,30.39,NNW,329,0.0,0.0,88,0.00,,,0.00,Wunderground v.1.15,2013-03-09 02:50:00,
2013-03-08 22:00:00,25.3,22.8,30.39,NNW,329,0.0,0.0,90,0.00,,,0.00,Wunderground v.1.15,2013-03-09 03:00:00,
2013-03-08 22:10:00,25.3,22.5,30.39,NNW,329,0.0,0.0,89,0.00,,,0.00,Wunderground v.1.15,2013-03-09 03:10:00,
2013-03-08 22:15:00,25.1,22.3,30.39,NNW,329,0.0,0.0,89,0.00,,,0.00,Wunderground v.1.15,2013-03-09 03:15:00,
2013-03-08 22:25:00,24.8,22.3,30.38,NNW,329,0.0,0.0,90,0.00,,,0.00,Wunderground v.1.15,2013-03-09 03:25:00,
2013-03-08 22:30:00,24.8,22.3,30.39,NNW,329,0.0,0.0,90,0.00,,,0.00,Wunderground v.1.15,2013-03-09 03:30:00,
2013-03-08 22:35:00,24.6,22.1,30.38,NNW,329,0.0,0.0,90,0.00,,,0.00,Wunderground v.1.15,2013-03-09 03:35:00,
2013-03-08 22:45:00,24.7,22.4,30.38,NNW,329,0.0,0.0,91,0.00,,,0.00,Wunderground v.1.15,2013-03-09 03:45:00,
2013-03-08 22:55:00,24.8,22.8,30.38,NNW,329,0.0,0.0,92,0.00,,,0.00,Wunderground v.1.15,2013-03-09 03:55:00,
2013-03-08 23:00:00,25.2,22.9,30.38,NNW,329,0.0,0.0,91,0.00,,,0.00,Wunderground v.1.15,2013-03-09 04:00:00,
2013-03-08 23:10:00,24.7,22.2,30.38,NNW,329,0.0,0.0,90,0.00,,,0.00,Wunderground v.1.15,2013-03-09 04:10:00,
2013-03-08 23:20:00,24.3,21.8,30.38,NNW,329,0.0,0.0,90,0.00,,,0.00,Wunderground v.1.15,2013-03-09 04:20:00,
2013-03-08 23:30:00,24.3,22.3,30.38,NNW,329,0.0,0.0,92,0.00,,,0.00,Wunderground v.1.15,2013-03-09 04:30:00,
2013-03-08 23:40:00,23.9,21.9,30.38,NNW,329,0.0,0.0,92,0.00,,,0.00,Wunderground v.1.15,2013-03-09 04:40:00,
2013-03-08 23:45:00,23.6,21.6,30.37,NNW,329,0.0,0.0,92,0.00,,,0.00,Wunderground v.1.15,2013-03-09 04:45:00,
2013-03-08 23:55:00,24.2,22.5,30.38,NNW,329,0.0,0.0,93,0.00,,,0.00,Wunderground v.1.15,2013-03-09 04:55:00,